Regional Weather Roundup
Issued by NWS

Home | Current Version | Previous Version | Graphics & Text | Print | Product List | Glossary On
Versions: 1 2 3 4 5 6 7 8 9 10 11 12 13 14 15 16 17 18 19 20 21 22 23 24 25 26 27 28 29 30 31 32 33 34 35 36 37 38 39 40 41 42 43 44 45 46 47 48 49 50
000
ASUS43 KOAX 310702
RWRNE

WEATHER ROUNDUP FOR NEBRASKA
NATIONAL WEATHER SERVICE OMAHA NE
100 AM CST SAT JAN 31 2015

NOTES: SATELLITE DATA IS BEING USED TO AUGMENT CLOUD COVER ABOVE
       12000 FEET.
       "FAIR" INDICATES FEW OR NO CLOUDS BELOW 12,000 FEET WITH NO
       SIGNIFICANT WEATHER AND/OR OBSTRUCTIONS TO VISIBILITY.

  * THESE STATIONS DO NOT REPORT WEATHER SUCH AS RAIN...SNOW OR FOG.

NEZ001>004-019>022-054>056-310800-
NEBRASKA PANHANDLE

CITY           SKY/WX    TMP DP  RH WIND       PRES   REMARKS
SCOTTSBLUFF    CLOUDY    35  27  72 N5        30.03F WCI  31
ALLIANCE       CLOUDY    29  26  89 N7        30.03F WCI  22
CHADRON        CLOUDY    28  24  85 CALM      30.08F
SIDNEY         CLOUDY    31  26  82 NW3       30.02F
$$

NEZ057>060-069>072-079>082-310800-
SOUTHWEST NEBRASKA

CITY           SKY/WX    TMP DP  RH WIND       PRES   REMARKS
NORTH PLATTE   CLOUDY    37  33  85 S9        30.09F WCI  30
IMPERIAL       CLOUDY    36  31  82 S9        30.07F WCI  29
MCCOOK         CLOUDY    35  33  92 S8        30.11F WCI  29
$$

NEZ005>010-023>029-035>040-094-310800-
NORTH CENTRAL NEBRASKA

CITY           SKY/WX    TMP DP  RH WIND       PRES   REMARKS
VALENTINE      CLOUDY    28  25  88 CALM      30.09S
BROKEN BOW     CLOUDY    37  32  82 S12       30.12F WCI  29
ORD            CLOUDY    36  31  82 S14       30.13F WCI  27
$$

NEZ041-046>049-061>064-073>077-083>087-310800-
SOUTH CENTRAL NEBRASKA

CITY           SKY/WX    TMP DP  RH WIND       PRES   REMARKS
GRAND ISLAND   CLOUDY    37  32  82 S17       30.20F WCI  27
HASTINGS       CLOUDY    34  31  88 S9        30.20F WCI  27
KEARNEY *      CLOUDY    36  30  80 S12       30.18F WCI  27
$$

NEZ011>018-030>034-042>045-310800-
NORTHEAST NEBRASKA

CITY           SKY/WX    TMP DP  RH WIND       PRES   REMARKS
NORFOLK        CLOUDY    34  28  79 SW6       30.15F WCI  29
COLUMBUS *     CLOUDY    39  28  65 SW10      30.20S WCI  32
TEKAMAH        CLOUDY    35  27  72 S10       30.20F WCI  27
$$

NEZ050>053-065>068-078-088>093-310800-
SOUTHEAST NEBRASKA

CITY           SKY/WX    TMP DP  RH WIND       PRES   REMARKS
LINCOLN        CLOUDY    37  29  72 SW9       30.24F WCI  30
OMAHA EPPLEY   CLOUDY    33  25  72 SE8       30.23F WCI  26
FALLS CITY     CLOUDY    34  23  64 S8        30.28F WCI  27
$$

NEZ044-045-051>053-067-310800-
OMAHA AREA

CITY           SKY/WX    TMP DP  RH WIND       PRES   REMARKS
OMAHA EPPLEY   CLOUDY    33  25  72 SE8       30.23F WCI  26
OFFUTT AFB     CLOUDY    35  26  68 SW5       30.23F WCI  31
$$



USA.gov is the U.S. government's official web portal to all federal, state and local government web resources and services.